Regional Weather Roundup
Issued by NWS

Home | Current Version | Previous Version | Text Only | Print | Product List | Glossary Off
Versions: 1 2 3 4 5 6 7 8 9 10 11 12 13 14 15 16 17 18 19 20 21 22 23 24 25 26 27 28 29 30 31 32 33 34 35 36 37 38 39 40 41 42 43 44 45 46 47 48 49 50

000
ASUS43 KMKX 232359
RWRWI

WISCONSIN REGIONAL WEATHER ROUNDUP
NATIONAL WEATHER SERVICE MILWAUKEE/SULLIVAN WI
700 PM CDT WED JUL 23 2014

NOTE: "FAIR" INDICATES FEW OR NO CLOUDS BELOW 12,000 FEET WITH NO
SIGNIFICANT WEATHER AND/OR OBSTRUCTIONS TO VISIBILITY.

WIZ001-002-006>008-014>016-023>028-240100-
NORTHWEST WISCONSIN

CITY           SKY/WX    TMP DP  RH WIND       PRES   REMARKS
SUPERIOR ARPT  SUNNY     68  56  65 E5        30.19S
ASHLAND        SUNNY     72  54  53 NE3       30.21S
6HR MIN TEMP:  71; 6HR MAX TEMP:  74;

HAYWARD        MOSUNNY   74  52  46 NE7       30.20F
6HR MIN TEMP:  73; 6HR MAX TEMP:  77;

SIREN          MOSUNNY   76  53  44 NE5       30.19F
RICE LAKE      MOSUNNY   76  50  40 N5        30.20F
LADYSMITH      SUNNY     74  55  51 N9        30.20S
EAU CLAIRE     NOT AVBL
MENOMONIE      CLEAR     79  50  37 NW8       30.17F
NEW RICHMOND   MOSUNNY   75  53  46 NW5       30.19S
OSCEOLA        SUNNY     74  56  52 CALM      30.20F
$$

WIZ003>005-009-010-017-018-240100-
NORTH CENTRAL WISCONSIN

CITY           SKY/WX    TMP DP  RH WIND       PRES   REMARKS
WOODRUFF       SUNNY     72  52  49 N7        30.20F
RHINELANDER    SUNNY     69  52  54 N5        30.20S
6HR MIN TEMP:  66; 6HR MAX TEMP:  73;

EAGLE RIVER    SUNNY     67  49  53 N6        30.20S
LAND O LAKES   MOSUNNY   68  49  50 N6        30.22S
PHILLIPS       SUNNY     70  52  52 N5        30.20S
TOMAHAWK       SUNNY     69  52  55 N3        30.19F
MEDFORD        MOSUNNY   72  53  51 N8        30.18S
MERRILL        SUNNY     72  54  52 N8        30.18S
$$

WIZ029-030-035-036-043>047-240100-
CENTRAL WISCONSIN

CITY           SKY/WX    TMP DP  RH WIND       PRES   REMARKS
WAUSAU         SUNNY     73  52  47 VRB6      30.15F
MOSINEE        PTSUNNY   73  54  49 N7        30.18F
MARSHFIELD     MOSUNNY   75  54  47 N9        30.16F
6HR MIN TEMP:  73; 6HR MAX TEMP:  78;

STEVENS POINT  MOSUNNY   73  51  46 N7        30.17S
WAUPACA        SUNNY     77  49  37 NE6       30.16S
WAUTOMA        NOT AVBL
WISC RAPIDS    MOSUNNY   76  53  44 N8        30.16F
6HR MIN TEMP:  75; 6HR MAX TEMP:  80;

CAMP DOUGLAS   NOT AVBL
$$

WIZ011>013-019>022-031-037>040-048>050-240100-
NORTHEAST WISCONSIN

CITY           SKY/WX    TMP DP  RH WIND       PRES   REMARKS
ANTIGO         MOSUNNY   70  53  54 N6        30.19S
STURGEON BAY   SUNNY     68  48  49 E8        30.17S
6HR MIN TEMP:  68; 6HR MAX TEMP:  72;

GREEN BAY      SUNNY     70  51  51 NE9       30.16S
6HR MIN TEMP:  70; 6HR MAX TEMP:  75;

MANITOWOC      NOT AVBL
APPLETON       MOSUNNY   72  48  43 NE10      30.16S
CLINTONVILLE   SUNNY     73  46  38 NE6       30.15F
OSHKOSH        SUNNY     72  52  49 NE8       30.15S
6HR MIN TEMP:  72; 6HR MAX TEMP:  76;

$$

WIZ032>034-041-042-053>061-240100-
SOUTHWEST WISCONSIN

CITY           SKY/WX    TMP DP  RH WIND       PRES   REMARKS
LA CROSSE      MOSUNNY   80  56  43 NW9       30.14F HX  80
6HR MIN TEMP:  78; 6HR MAX TEMP:  84;

SPARTA         MOSUNNY   78  52  39 NW7       30.15F
VIROQUA        MOCLDY    73  59  61 N5        30.17F
BOSCOBEL       MOSUNNY   79  56  45 NE5       30.13F HX  80
6HR MIN TEMP:  78; 6HR MAX TEMP:  84;

PRAIRIE DU CHI SUNNY     78  49  35 N6        30.14S
PLATTEVILLE    FAIR      75  54  48 N6        30.16S
$$

WIZ056-057-062-063-064-067-068-240100-
SOUTH CENTRAL WISCONSIN

CITY           SKY/WX    TMP DP  RH WIND       PRES   REMARKS
BARABOO/DELLS  MOSUNNY   74  52  46 NE7       30.15S
LONE ROCK      NOT AVBL
WATERTOWN      SUNNY     72  57  58 E10       30.14S
MADISON        PTSUNNY   75  55  49 NE8       30.14S
6HR MIN TEMP:  74; 6HR MAX TEMP:  80;

MIDDLETON      FAIR      77  52  42 NE9G16    30.14S
MONROE         MOSUNNY   73  55  53 N7        30.14F
JANESVILLE     MOSUNNY   75  50  41 N12       30.13S
$$

WIZ051-052-058>065-066-070>072-240100-
SOUTHEAST WISCONSIN

CITY           SKY/WX    TMP DP  RH WIND       PRES   REMARKS
MILWAUKEE      MOSUNNY   63  52  67 NE10      30.17S
6HR MIN TEMP:  63; 6HR MAX TEMP:  69;

WAUKESHA       PTSUNNY   64  48  55 E12       30.18S
MILWAUKEE/TIMM SUNNY     64  46  52 N13G20    30.18S
RACINE         SUNNY     63  54  72 N9        30.18S
6HR MIN TEMP:  62; 6HR MAX TEMP:  68;

BURLINGTON     SUNNY     65  52  63 E9        30.17R
KENOSHA        SUNNY     64  51  62 NE12G20   30.16F
6HR MIN TEMP:  64; 6HR MAX TEMP:  73;

FOND DU LAC    MOSUNNY   70  54  56 E7        30.16S
6HR MIN TEMP:  70; 6HR MAX TEMP:  76;

SHEBOYGAN      MOSUNNY   65  50  58 NE9       30.17S
6HR MIN TEMP:  63; 6HR MAX TEMP:  67;

WEST BEND      MOSUNNY   64  48  55 NE10      30.17S
JUNEAU         SUNNY     72  49  43 E10G16    30.16S
$$

LSZ147-162-240100-
LAKE SUPERIOR

STATION/POSITION TIME  TEMP    WIND        PRES    WAVE
                       AIR SEA DIR/SP/G            HT/PER
                 (UTC) (F)     (DEG/KT/KT) (MB)    (FT/S)
$$

LMZ867-665-643>646-240100-
LAKE MICHIGAN

STATION/POSITION TIME  TEMP    WIND        PRES    WAVE
                       AIR SEA DIR/SP/G            HT/PER
                 (UTC) (F)     (DEG/KT/KT) (MB)    (FT/S)
$$

TC  - TEMPERATURE IN CELSIUS
VSB - VISIBILITY IN STATUTE MILES
WCI - WIND CHILL INDEX
HX  - HEAT INDEX




USA.gov is the U.S. government's official web portal to all federal, state and local government web resources and services.